CZ-6A DEB, 60772

Orbit data source: Space-Track

CZ-6A DEB, 60772 is space debris in LEO originally from a launch on Tue, 06 Aug 2024 UTC launched from the Taiyaun Space Center, China (TSC). Debris objects in space refer to the collection of defunct objects orbiting the Earth. Examples of debris include non-operational satellites, rocket bodies, and fragments generated from explosions, collisions, or faulty payload assembly.

Loading next visibility...
Identifier
60772, 2024-140EX
Orbit
LEO
Country
Flag of CNCN / PRC
Related business
Manufacturer
SAST
Mission
Spacecraft
Bus & Motor
Unknown
Mass
Unknown
Launch date (UTC)
2024-08-06 (2 years ago)
Launch vehicle
Unknown
Launch site
Taiyaun Space Center, China (TSC)
Object type
Payload
Rocket body
Debris
Shape & HBR
Unknown shape, 0.5 m
Radar Cross Section
Medium (>0.1 m² and <1 m²)

Expand to show TLE details & history
Last TLE update: 13 hours ago

TLE from 13 hours ago
0 CZ-6A DEB
1 60772U 24140EX  26171.30226073  .00001002  00000-0  29985-3 0  9992
2 60772  88.9307 265.9600 0070834 226.7376 132.7901 14.40738255 97404
Epoch: 2026-06-20T07:15Z
TLE epoch observation values (Epoch: 2026-06-20T07:15:15.327Z)
Latitude
-0.00009°
Longitude
-111.3727°
Altitude
793.67 km
Speed
7.439 km/s
True Right ascension
17h 43m 50s
True Declination
0° 00' 00"
Sunlit
Object was in full shadow at epoch
Visualization orbit readout
Latitude
Unknown
Longitude
Unknown
Altitude
Unknown
Speed
Unknown
Apparent Right ascension
Unknown
Apparent Declination
Unknown
Sunlit
N/A
Visualization observer readout
Local Sidereal Time
07:20:13
Azimuth
Unknown
Elevation
Unknown
Doppler factor
Unknown
Orbital elements
Apogee altitude
803.495 km
Perigee altitude
702.469 km
Semi-major axis
7,131.119 km
Eccentricity
0.00708
Inclination
88.9307°
RAAN
265.96°
Arg. of periapsis
226.7376°
True anomaly
133.38219°
Mean anomaly
132.7901°
Eccentric anomaly
133.0865°
Mean motion
3.60418 °/min
Orbital period
99.88 mins
BSTAR
0.00029985
Loading maneuver chart data...
Computing Atmospheric mass density...
Loading historical data...
Loading historical data...
Loading historical data...
Loading historical data...
Loading historical data...
Loading historical data...
Loading historical data...

Documentation

Showing up to 5 results
|